New York, NY

11:01 PM EST on December 13, 2019 (GMT -0500)
La Guardia

Weather History for KLGA - November, 2019

Change the Weather History Date:

Tuesday, November 19, 2019

  Actual Average Record
Temperature  
Mean Temperature 45 °F 47 °F  
Max Temperature 49 °F 54 °F 70 °F (1953)
Min Temperature 41 °F 41 °F 22 °F (2014)
Degree Days  
Heating Degree Days 20 18  
Month to date heating degree days 388 286  
Since 1 July heating degree days 542 558  
Cooling Degree Days 0 0  
Month to date cooling degree days 0 0  
Year to date cooling degree days 1484 1213  
Moisture  
Dew Point 36 °F    
Average Humidity 74    
Maximum Humidity 93    
Minimum Humidity 53    
Precipitation  
Precipitation 0.21 in 0.12 in 1.62 in (2003)
Month to date precipitation 0.80 2.10  
Year to date precipitation 42.86 39.86  
Snow  
Snow - 0.10 in 0.60 in (1955)
Month to date snowfall 0.0 0.1  
Since 1 July snowfall 0.0 0.1  
Snow Depth 0.00 in    
Sea Level Pressure  
Sea Level Pressure 29.78 in    
Wind  
Wind Speed 6 mph ()    
Max Wind Speed 16 mph    
Max Gust Speed 21 mph    
Visibility 8.7 miles    
Events Rain    
T = Trace of Precipitation, MM = Missing Value Source: Averaged Metar Reports

Daily Weather History Graph

Daily Weather History Graph

Search for Another Location

Airport or City:

Astronomy

Nov. 19, 2019 Rise Set
Actual Time 6:46 AM EST 4:34 PM EST
Civil Twilight 6:17 AM EST 5:04 PM EST
Nautical Twilight 5:43 AM EST 5:37 PM EST
Astronomical Twilight 5:11 AM EST 6:09 PM EST
Moon 11:27 PM EST (11/19) 12:55 PM EST (11/19)
Length of Visible Light 10h 46m
Length of Day
9h 47m
Waning Gibbous, 52% of the Moon is Illuminated
Nov 19
Waning Gibbous
Nov 19
Last Quarter
Nov 26
New
Dec 4
First Quarter
Dec 12
Full

Hourly Weather History & Observations

Time (EST) Temp. Windchill Dew Point Humidity Pressure Visibility Wind Dir Wind Speed Gust Speed Precip Events Conditions
12:13 AM 41.0 °F - 39.0 °F 93% 29.70 in 2.5 mi Calm Calm - 0.02 in Rain Rain
12:33 AM 42.1 °F 40.2 °F 39.0 °F 89% 29.70 in 3.0 mi North 3.5 mph - 0.04 in Rain Light Rain
12:49 AM 41.0 °F 39.0 °F 39.2 °F 93% 29.70 in 2.5 mi NNW 3.5 mph - 0.04 in Rain Light Rain
12:51 AM 41.0 °F 39.0 °F 39.0 °F 93% 29.70 in 2.5 mi NNW 3.5 mph - 0.04 in Rain Light Rain
1:47 AM 42.8 °F 39.3 °F 39.2 °F 87% 29.71 in 6.0 mi WNW 5.8 mph - 0.05 in Rain Light Rain
1:51 AM 42.1 °F 40.2 °F 39.0 °F 89% 29.72 in 6.0 mi WNW 3.5 mph - 0.06 in Rain Light Rain
2:36 AM 42.1 °F 36.6 °F 39.0 °F 89% 29.71 in 6.0 mi NNW 9.2 mph - 0.09 in Rain Light Rain
2:51 AM 42.1 °F 37.7 °F 39.0 °F 89% 29.72 in 10.0 mi NW 6.9 mph - 0.09 in Rain Light Rain
3:51 AM 42.1 °F 37.7 °F 39.0 °F 89% 29.71 in 10.0 mi North 6.9 mph - 0.02 in   Overcast
4:51 AM 43.0 °F 39.5 °F 37.9 °F 82% 29.73 in 10.0 mi WNW 5.8 mph - N/A   Overcast
5:06 AM 43.0 °F 39.5 °F 37.9 °F 82% 29.73 in 10.0 mi WNW 5.8 mph - N/A   Overcast
5:40 AM 43.0 °F 39.5 °F 37.9 °F 82% 29.74 in 10.0 mi NW 5.8 mph - N/A   Overcast
5:51 AM 43.0 °F 40.3 °F 39.0 °F 86% 29.74 in 10.0 mi NW 4.6 mph - N/A   Overcast
6:51 AM 43.0 °F - 37.9 °F 82% 29.75 in 10.0 mi Calm Calm - N/A   Overcast
7:51 AM 44.1 °F 40.1 °F 37.9 °F 79% 29.78 in 10.0 mi West 6.9 mph - N/A   Overcast
8:51 AM 45.0 °F 39.7 °F 37.9 °F 76% 29.79 in 10.0 mi WNW 10.4 mph - N/A   Overcast
9:51 AM 46.0 °F 41.9 °F 37.9 °F 73% 29.79 in 10.0 mi NW 8.1 mph - N/A   Scattered Clouds
10:03 AM 46.0 °F 41.0 °F 37.0 °F 71% 29.79 in 10.0 mi WNW 10.4 mph - N/A   Mostly Cloudy
11:51 AM 46.9 °F - 36.0 °F 66% 29.78 in 10.0 mi WNW 10.4 mph - N/A   Mostly Cloudy
12:51 PM 48.0 °F - 36.0 °F 63% 29.77 in 10.0 mi NW 10.4 mph - N/A   Mostly Cloudy
1:51 PM 48.0 °F - 35.1 °F 61% 29.78 in 10.0 mi WNW 12.7 mph - N/A   Mostly Cloudy
2:51 PM 48.0 °F - 34.0 °F 58% 29.79 in 10.0 mi WNW 9.2 mph - N/A   Overcast
4:01 PM 46.9 °F - 34.0 °F 61% 29.81 in 10.0 mi NW 8.1 mph - N/A   Overcast
4:51 PM 46.9 °F - 34.0 °F 61% 29.82 in 10.0 mi North 11.5 mph - N/A   Mostly Cloudy
5:51 PM 46.0 °F 41.0 °F 33.1 °F 61% 29.85 in 10.0 mi NNW 10.4 mph - N/A   Mostly Cloudy
6:51 PM 46.0 °F 41.4 °F 33.1 °F 61% 29.86 in 10.0 mi NNW 9.2 mph - N/A   Mostly Cloudy
7:51 PM 46.0 °F 41.0 °F 30.9 °F 56% 29.86 in 10.0 mi NNW 10.4 mph - N/A   Mostly Cloudy
8:51 PM 45.0 °F 39.3 °F 30.9 °F 58% 29.87 in 10.0 mi NNW 11.5 mph - N/A   Mostly Cloudy
9:51 PM 45.0 °F 40.1 °F 30.9 °F 58% 29.88 in 10.0 mi NNW 9.2 mph - N/A   Mostly Cloudy
10:51 PM 44.1 °F 40.1 °F 30.9 °F 60% 29.87 in 10.0 mi NNW 6.9 mph - N/A   Overcast
11:46 PM 44.6 °F 39.2 °F 33.8 °F 66% 29.86 in 10.0 mi North 10.4 mph - N/A   Overcast
11:51 PM 44.1 °F 39.0 °F 34.0 °F 68% 29.86 in 10.0 mi North 9.2 mph - N/A   Overcast